W4EDP Weather Reports


Display with metric or nautical units.
time (UTC)temp
F
wind
direction
speed
MPH
gust
MPH
rain 1hr
in
rain 24hr
in
rain mn
in
humidity
%
barometer
mb
20260508213621 63 125 0.0 0.0 0.00 0.00 0.00 55 1012.3
20260508212551 64 124 0.0 0.0 0.00 0.00 0.00 50 1012.6
20260508211547 64 123 0.0 0.0 0.00 0.00 0.00 52 1012.6
20260508210523 63 92 0.0 0.0 0.00 0.00 0.00 53 1012.9
20260508205455 65 205 0.0 0.0 0.00 0.00 0.00 52 1013.2
20260508204512 65 275 0.0 0.0 0.00 0.00 0.00 54 1013.2
20260508202328 65 179 0.0 0.0 0.00 0.00 0.00 53 1013.1
20260508201315 64 155 0.0 0.0 0.00 0.00 0.00 50 1013.5
20260508200323 62 152 0.0 0.0 0.00 0.00 0.00 49 1013.5
20260508194157 63 155 1.0 3.0 0.00 0.00 0.00 54 1013.8
20260508193144 62 157 0.0 0.0 0.00 0.00 0.00 52 1013.8
20260508192157 63 216 0.0 3.0 0.00 0.00 0.00 49 1014.0
20260508191159 63 141 1.0 1.0 0.00 0.00 0.00 53 1014.1
20260508190133 62 130 1.0 3.0 0.00 0.00 0.00 51 1014.1
20260508185116 63 151 1.0 3.0 0.00 0.00 0.00 50 1014.4
20260508184109 64 281 1.0 3.0 0.00 0.00 0.00 46 1014.7
20260508183125 63 197 1.0 4.0 0.00 0.00 0.00 47 1014.7
20260508182147 64 199 1.0 6.0 0.00 0.00 0.00 46 1015.1
20260508181212 64 239 1.0 6.0 0.00 0.00 0.00 42 1015.2
20260508180141 64 189 0.0 0.0 0.00 0.00 0.00 45 1015.2
20260508175107 62 103 0.0 0.0 0.00 0.00 0.00 45 1015.2
20260508174057 62 139 1.0 0.0 0.00 0.00 0.00 44 1015.7
20260508173055 63 117 1.0 3.0 0.00 0.00 0.00 54 1015.7
20260508172038 61 78 1.0 6.0 0.00 0.00 0.00 47 1015.8
20260508171103 62 167 0.0 0.0 0.00 0.00 0.00 49 1015.7
20260508170123 61 142 1.0 4.0 0.00 0.00 0.00 52 1015.7
20260508165054 60 90 1.0 6.0 0.00 0.00 0.00 53 1015.9
20260508164106 60 174 0.0 6.0 0.00 0.00 0.00 57 1016.3
20260508163056 60 63 0.0 0.0 0.00 0.00 0.00 51 1016.3
20260508162023 59 226 0.0 0.0 0.00 0.00 0.00 51 1016.6
20260508161024 59 153 0.0 0.0 0.00 0.00 0.00 56 1016.8
20260508160025 59 137 0.0 0.0 0.00 0.00 0.00 55 1016.8
20260508155011 59 103 0.0 0.0 0.00 0.00 0.00 54 1016.9
20260508152933 58 152 0.0 6.0 0.00 0.00 0.00 60 1016.8
20260508151901 57 113 1.0 4.0 0.00 0.00 0.00 58 1017.1
20260508150917 57 109 0.0 4.0 0.00 0.00 0.00 60 1017.0
20260508145859 57 141 0.0 0.0 0.00 0.00 0.00 60 1017.1
20260508144900 56 90 2.0 6.0 0.00 0.00 0.00 57 1017.1
20260508143844 56 134 2.0 6.0 0.00 0.00 0.00 62 1017.1
20260508142819 56 125 2.0 6.0 0.00 0.00 0.00 64 1017.1
20260508141757 56 155 2.0 6.0 0.00 0.00 0.00 66 1017.1
20260508134539 55 0 2.0 4.0 0.00 0.00 0.00 66 1017.1
20260508133604 54 0 1.0 4.0 0.00 0.00 0.00 66 1017.0
20260508132616 54 0 1.0 4.0 0.00 0.00 0.00 65 1016.9
20260508131601 53 0 1.0 4.0 0.00 0.00 0.00 65 1016.9
20260508130614 53 0 2.0 4.0 0.00 0.00 0.00 66 1017.0
20260508125626 53 0 1.0 4.0 0.00 0.00 0.00 60 1017.0
20260508124554 52 0 0.0 0.0 0.00 0.00 0.00 65 1017.0
20260508123531 52 0 0.0 0.0 0.00 0.00 0.00 65 1017.0
20260508122545 52 0 1.0 3.0 0.00 0.00 0.00 69 1016.9
20260508121607 51 0 1.0 3.0 0.00 0.00 0.00 67 1016.9
20260508115527 50 0 1.0 3.0 0.00 0.00 0.00 63 1016.4
20260508114459 50 0 1.0 4.0 0.00 0.00 0.00 64 1016.4
20260508113424 49 0 1.0 3.0 0.00 0.00 0.00 63 1016.0
20260508112411 49 0 1.0 3.0 0.00 0.00 0.00 64 1015.8
20260508111415 50 0 1.0 4.0 0.00 0.00 0.00 63 1015.8
20260508110431 49 0 1.0 4.0 0.00 0.01 0.00 64 1015.5
20260508105438 50 0 1.0 3.0 0.00 0.01 0.00 63 1015.4
20260508104432 50 0 0.0 0.0 0.00 0.01 0.00 59 1015.4
20260508103438 50 0 0.0 0.0 0.00 0.01 0.00 63 1015.2
20260508095025 50 0 1.0 3.0 0.00 0.01 0.00 62 1014.7
20260508093952 50 0 1.0 3.0 0.00 0.01 0.00 61 1014.7
20260508091756 50 0 1.0 4.0 0.00 0.06 0.00 61 1014.7
20260508090729 51 0 0.0 4.0 0.00 0.16 0.00 61 1014.6
20260508085656 51 0 0.0 0.0 0.00 0.21 0.00 64 1014.5
20260508083537 51 0 0.0 1.0 0.00 0.23 0.00 64 1014.5
20260508082504 51 0 1.0 4.0 0.00 0.28 0.00 64 1014.5
20260508081442 51 0 1.0 3.0 0.00 0.29 0.00 66 1014.5
20260508080457 51 0 1.0 1.0 0.00 0.29 0.00 67 1014.5
20260508075459 51 0 1.0 4.0 0.00 0.29 0.00 68 1014.5
20260508074521 51 0 1.0 4.0 0.00 0.29 0.00 67 1014.5
20260508073541 51 0 1.0 4.0 0.00 0.29 0.00 67 1014.6
20260508072514 51 0 1.0 4.0 0.00 0.29 0.00 68 1014.6
20260508071513 51 0 1.0 4.0 0.00 0.29 0.00 68 1014.6
20260508070500 51 0 1.0 4.0 0.00 0.29 0.00 69 1014.8
20260508064357 51 0 1.0 3.0 0.00 0.29 0.00 73 1015.0
20260508062307 51 0 1.0 3.0 0.00 0.29 0.00 72 1015.0
20260508061239 51 0 1.0 4.0 0.00 0.29 0.00 73 1015.1
20260508060224 51 0 1.0 4.0 0.00 0.29 0.00 72 1015.1
20260508055227 51 0 1.0 3.0 0.00 0.29 0.00 72 1015.0
20260508053111 51 0 1.0 3.0 0.00 0.29 0.00 73 1015.0
20260508052044 51 0 1.0 3.0 0.00 0.29 0.00 72 1014.9
20260508051056 51 0 0.0 0.0 0.00 0.29 0.00 73 1014.7
20260508044943 51 0 0.0 0.0 0.00 0.29 0.00 75 1014.7
20260508043932 51 0 0.0 1.0 0.00 0.29 0.00 75 1014.8
20260508042947 51 0 0.0 3.0 0.00 0.29 0.00 77 1014.8
20260508041951 51 0 0.0 1.0 0.00 0.30 0.00 75 1014.9
20260508040951 51 0 0.0 0.0 0.00 0.31 0.00 75 1014.6
20260508035928 52 0 0.0 0.0 0.00 0.31 0.31 78 1014.6
20260508033837 52 0 0.0 1.0 0.00 0.32 0.31 75 1014.4
20260508032837 52 0 0.0 0.0 0.00 0.37 0.31 76 1014.3
20260508030740 53 0 0.0 0.0 0.00 0.37 0.31 73 1014.3
20260508025804 52 0 0.0 0.0 0.00 0.42 0.31 74 1014.1
20260508023642 53 0 1.0 4.0 0.00 0.47 0.31 77 1014.2
20260508022658 53 0 1.0 4.0 0.00 0.48 0.31 76 1014.1
20260508021657 53 0 1.0 3.0 0.00 0.48 0.31 76 1014.1
20260508020710 53 0 1.0 4.0 0.00 0.48 0.31 79 1013.7
20260508015716 53 0 1.0 4.0 0.00 0.48 0.31 79 1013.7
20260508014732 53 0 0.0 3.0 0.00 0.48 0.31 78 1013.7
20260508013710 53 0 0.0 0.0 0.00 0.48 0.31 78 1013.6
20260508012734 54 0 0.0 0.0 0.00 0.48 0.31 78 1013.4
20260508010530 54 0 1.0 6.0 0.00 0.48 0.31 81 1013.1
20260508005515 54 0 1.0 4.0 0.00 0.48 0.31 79 1013.0
20260508003431 55 0 0.0 3.0 0.00 0.48 0.31 78 1012.9
20260508002421 56 0 1.0 6.0 0.00 0.48 0.31 80 1012.9
20260508001402 57 0 2.0 6.0 0.00 0.48 0.31 78 1012.4
20260508000427 57 0 2.0 8.0 0.00 0.55 0.31 76 1012.4
20260507235436 58 0 2.0 8.0 0.00 0.57 0.31 71 1012.5
20260507234405 57 0 2.0 4.0 0.00 0.57 0.31 77 1012.4
20260507233407 58 0 1.0 4.0 0.00 0.57 0.31 76 1012.4
20260507232347 58 0 1.0 6.0 0.00 0.58 0.31 73 1012.5
20260507231331 59 0 2.0 6.0 0.00 0.64 0.31 69 1012.4
20260507230301 59 0 2.0 8.0 0.00 0.70 0.31 70 1012.4
20260507225253 60 0 2.0 8.0 0.00 0.72 0.31 70 1012.4
20260507224257 59 0 2.0 8.0 0.00 0.72 0.31 73 1012.4
20260507223306 59 0 2.0 8.0 0.00 0.73 0.31 72 1012.4
20260507222325 60 0 2.0 8.0 0.00 0.74 0.31 73 1012.3
20260507221250 61 155 2.0 6.0 0.00 0.76 0.31 72 1012.3
20260507220244 61 96 2.0 8.0 0.00 0.79 0.31 71 1012.3
20260507215224 60 81 2.0 15.0 0.00 0.81 0.31 73 1012.3
20260507214242 61 115 2.0 15.0 0.00 0.81 0.31 68 1012.1